Find Starlink 34041

NORAD ID: 63844 Int'l Des: 2025-093 Owner: SPXS Country: US Constellation: starlink operational
LEOCIRCULAR

当前视图

正在加载3D地球...

About Starlink 34041

Starlink 34041 (NORAD 63844) is a starlink constellation satellite (v2 mini) launched May 7, 2025 by SPXS of US. It operates in LEO, CIRCULAR orbit with a mass of 575.00 kg.

即将过境

Passes for default location (London). Set your location on the main map for personalized predictions.

高度历史

Loading altitude history...

两行轨道根数

1 63844U 25093J 26262.78866186 .00013305 00000-0 49188-3 0 9997
2 63844 43.0041 62.0309 0002794 280.0770 79.9767 15.27597577 77650
Epoch: Sep 19, 2026 • Age: 28 hours

当前状态

高度 485.4 km
远地点 / 近地点 N/A
速度 7.62 km/s
星下点 -18.18°S, 49.22°E
发射日期 May 7, 2025
运行时间 1.3 years
类型 internet

技术详情

分类 Payload
质量 575.00 kg
干质量 530.00 kg
长度 0.30 m
跨度 29.00 m
形状 ? Box + pan
制造商 SPXS
平台类型 Starlink V2MO
阶段状态 In Orbit
所有者/国家 SPXS/US

Most Searched